[[{"header":{"parameterUnit":"m.s-1","parameterCategory":1,"la1":30.2991,"la2":30.254,"lo1":-89.0895,"lo2":-89.0444,"dy":0.0017,"dx":0.0017,"nx":28,"ny":28,"refTime":"2024-02-10T03:00:00:Z","depth":0,"parameterNumber":2,"parameterNumberName":"U-component_of_WINDS"},"data":[0,0,0,0,0,0,0,0,0,0,0,0,0,0,0,0,0,0,0,0,0,0,0,0,0,0,0,0,0,0,0,0,0,0,0,0,0,0,0,0,0,0,0,0,0,0,0,0,0,0,0,0,0,0,0,0,0,0,-2.4617,-2.4618,0,-2.4737,-2.4738,-2.4739,-2.479,-2.4789,-2.4789,-2.4789,-2.4911,-2.4915,-2.4918,0,0,0,0,0,0,0,0,0,0,0,0,0,-2.4434,-2.4437,-2.4617,-2.4618,-2.462,-2.4736,-2.4738,-2.474,-2.479,-2.4789,-2.4789,-2.4789,-2.491,-2.4914,-2.4919,0,0,0,0,0,0,0,0,0,0,0,0,0,-2.4529,-2.4438,-2.4616,-2.4659,-2.4664,-2.4736,-2.4738,-2.474,-2.479,-2.4789,-2.4789,-2.4789,-2.4909,-2.4914,-2.4919,-2.4958,0,0,-2.4935,-2.4937,0,0,0,0,0,0,0,0,-2.4524,-2.4536,-2.4651,-2.4656,-2.4662,-2.4748,-2.4718,-2.4813,-2.479,-2.4742,-2.4789,-2.4789,-2.4857,-2.4867,-2.489,-2.4964,-2.4969,-2.4936,-2.4939,-2.4941,-2.4942,0,0,0,0,0,0,0,-2.4517,-2.4531,-2.4664,-2.4653,-2.4659,-2.4673,-2.4686,-2.4737,-2.48,-2.4746,-2.475,-2.4763,-2.486,-2.4885,-2.4893,-2.4971,-2.4935,-2.494,-2.4943,-2.4945,-2.5086,-2.5086,0,0,0,0,0,0,-2.4503,-2.4525,-2.466,-2.4668,-2.459,-2.4676,-2.4691,-2.472,-2.48,-2.4811,-2.4764,-2.4765,-2.4876,-2.4887,-2.4898,-2.495,-2.4941,-2.4946,-2.4949,-2.5085,-2.5086,-2.5087,0,0,0,0,0,0,-2.4499,-2.4515,-2.4656,-2.4598,-2.4617,-2.468,-2.4713,-2.4723,-2.4748,-2.4813,-2.4825,-2.4777,-2.4876,-2.489,-2.4943,-2.4955,-2.4948,-2.4953,-2.5084,-2.5085,-2.5086,-2.5053,0,0,0,0,0,0,-2.4494,-2.4513,-2.4528,-2.4598,-2.4619,-2.4698,-2.4713,-2.4726,-2.4757,-2.476,-2.4829,-2.484,-2.4877,-2.4935,-2.4949,-2.4962,-2.4957,-2.5084,-2.5085,-2.5086,-2.5054,-2.5053,-2.5052,0,0,0,0,0,-2.4487,-2.4513,-2.4528,-2.4544,-2.4639,-2.4699,-2.4711,-2.4754,-2.4757,-2.4773,-2.4816,-2.4837,-2.4952,-2.494,-2.4956,-2.4971,-2.5083,-2.5085,-2.5086,-2.5054,-2.5053,-2.5052,0,0,0,0,0,0,-2.4443,-2.4523,-2.4541,-2.459,-2.4637,-2.4707,-2.4728,-2.4751,-2.4799,-2.48,-2.4851,-2.4866,-2.4915,-2.4948,-2.4934,-2.5014,-2.5019,-2.5024,-2.499,-2.499,-2.4989,-2.498,-2.4961,0,0,0,0,0,-2.4439,-2.448,-2.4549,-2.4586,-2.4609,-2.4664,-2.4692,-2.4721,-2.4772,-2.4792,-2.4838,-2.4887,-2.4934,-2.4964,-2.5011,-2.5059,-2.5076,-2.5078,-2.5077,-2.5076,-2.5079,-2.5109,-2.5111,-2.5091,-2.5091,-2.5091,0,0,-2.4431,-2.448,-2.4503,-2.4578,-2.4618,-2.4661,-2.4681,-2.4724,-2.4757,-2.4799,-2.4852,-2.4888,-2.4946,-2.4997,-2.5022,-2.5026,-2.5089,-2.5078,-2.5077,-2.508,-2.511,-2.5112,-2.5114,-2.5092,-2.5092,-2.5092,0,0,-2.4439,-2.448,-2.4516,-2.4556,-2.4617,-2.4654,-2.4663,-2.473,-2.4755,-2.4809,-2.4842,-2.4882,-2.4962,-2.5002,-2.5033,-2.5059,-2.5081,-2.5073,-2.5069,-2.5098,-2.5099,-2.5101,-2.5111,-2.5113,-2.5076,-2.5076,-2.5076,0,-2.4421,-2.4486,-2.4532,-2.4574,-2.4607,-2.4648,-2.4686,-2.4722,-2.4795,-2.4817,-2.4821,-2.4924,-2.4965,-2.5027,-2.5034,-2.5058,-2.507,-2.5065,-2.5095,-2.5097,-2.51,-2.511,-2.5113,-2.5074,-2.5075,-2.5075,-2.5075,0,-2.4462,-2.4507,-2.4529,-2.4599,-2.4634,-2.4674,-2.4726,-2.4757,-2.4784,-2.4821,-2.4877,-2.4929,-2.4988,-2.5005,-2.5031,-2.5071,-2.5072,-2.5085,-2.5092,-2.5099,-2.511,-2.5114,-2.5072,-2.5073,-2.5073,-2.5074,0,0,-2.4443,-2.4539,-2.4547,-2.4579,-2.465,-2.4686,-2.4729,-2.4787,-2.4812,-2.4862,-2.4899,-2.4967,-2.498,-2.5016,-2.5047,-2.5072,-2.509,-2.5082,-2.5085,-2.5082,-2.514,-2.5129,-2.5132,-2.5106,-2.5107,-2.5108,-2.5135,0,-2.4461,-2.4538,-2.4581,-2.4641,-2.4683,-2.4724,-2.4762,-2.481,-2.4846,-2.4888,-2.4929,-2.4977,-2.499,-2.5012,-2.5038,-2.5082,-2.5102,-2.5081,-2.5142,-2.5144,-2.5125,-2.5138,-2.5126,-2.5149,-2.5139,-2.514,-2.514,0,-2.449,-2.454,-2.4603,-2.4671,-2.4691,-2.4723,-2.4781,-2.482,-2.4876,-2.4902,-2.4942,-2.4974,-2.5022,-2.5025,-2.5092,-2.5077,-2.5105,-2.5131,-2.5133,-2.5139,-2.5141,-2.5145,-2.5157,-2.516,-2.5147,-2.5146,-2.5146,0,-2.4471,-2.4553,-2.4602,-2.4629,-2.4709,-2.4731,-2.4766,-2.4822,-2.4854,-2.4905,-2.4927,-2.4983,-2.5013,-2.5056,-2.5103,-2.5101,-2.5166,-2.5173,-2.5188,-2.5187,-2.5199,-2.5197,-2.5216,-2.5218,-2.5218,-2.5217,-2.5217,0,-2.4485,-2.4523,-2.4595,-2.4625,-2.4669,-2.4719,-2.4761,-2.4799,-2.4849,-2.4888,-2.4927,-2.4963,-2.5023,-2.5067,-2.5103,-2.5154,-2.5167,-2.519,-2.5199,-2.5186,-2.5183,-2.5204,-2.5203,-2.5218,-2.5218,-2.5218,-2.5218,0,-2.447,-2.452,-2.4576,-2.4648,-2.4667,-2.4696,-2.4758,-2.4789,-2.4829,-2.4878,-2.4893,-2.4955,-2.5008,-2.5059,-2.5131,-2.5156,-2.5207,-2.5219,-2.5188,-2.5193,-2.5205,-2.5203,-2.5237,-2.5245,-2.5241,-2.5241,-2.5241,0,-2.4476,-2.4506,-2.4581,-2.461,-2.4643,-2.4689,-2.4723,-2.4775,-2.4809,-2.4876,-2.49,-2.4957,-2.5005,-2.5089,-2.5141,-2.5197,-2.521,-2.5219,-2.5219,-2.5205,-2.5211,-2.5208,-2.5212,-2.5217,-2.5217,-2.5217,-2.5217,0,-2.4481,-2.4504,-2.4551,-2.4607,-2.4646,-2.4693,-2.4741,-2.4763,-2.4824,-2.4861,-2.4916,-2.4953,-2.5028,-2.5084,-2.5146,-2.5183,-2.521,-2.5217,-2.5223,-2.521,-2.519,-2.5201,-2.5185,-2.5215,-2.5215,-2.5215,-2.5215,-2.5216,-2.4476,-2.4505,-2.4563,-2.4615,-2.4656,-2.4701,-2.4734,-2.4778,-2.4825,-2.4889,-2.4918,-2.4974,-2.5032,-2.5118,-2.5155,-2.52,-2.5207,-2.5216,-2.5218,-2.522,-2.5217,-2.5184,-2.5212,-2.5212,-2.5212,-2.5212,-2.5212,0,-2.4484,-2.4523,-2.457,-2.4636,-2.4677,-2.47,-2.4755,-2.4788,-2.4837,-2.4888,-2.4935,-2.5,-2.5055,-2.5112,-2.5171,-2.5197,-2.5211,-2.521,-2.5209,-2.5217,-2.5208,-2.5196,-2.5198,-2.5198,-2.5198,-2.5198,-2.5198,-2.5198,-2.4492,-2.4542,-2.4573,-2.4645,-2.4685,-2.474,-2.477,-2.4812,-2.4853,-2.4923,-2.4969,-2.5006,-2.5061,-2.5124,-2.5176,-2.5192,-2.5212,-2.5208,-2.5227,-2.5217,-2.5217,-2.5218,-2.5208,-2.5212,-2.5212,-2.5232,-2.5232,-2.5232]},{"header":{"parameterUnit":"m.s-1","parameterCategory":1,"la1":30.2991,"la2":30.254,"lo1":-89.0895,"lo2":-89.0444,"dy":0.0017,"dx":0.0017,"nx":28,"ny":28,"refTime":"2024-02-10T03:00:00:Z","depth":0,"parameterNumber":3,"parameterNumberName":"V-component_of_WINDS"},"data":[0,0,0,0,0,0,0,0,0,0,0,0,0,0,0,0,0,0,0,0,0,0,0,0,0,0,0,0,0,0,0,0,0,0,0,0,0,0,0,0,0,0,0,0,0,0,0,0,0,0,0,0,0,0,0,0,0,0,4.0326,4.0327,0,4.0379,4.0379,4.038,4.0357,4.0356,4.0355,4.0353,4.0405,4.0407,4.041,0,0,0,0,0,0,0,0,0,0,0,0,0,4.0205,4.0207,4.0326,4.0327,4.0328,4.0379,4.0379,4.038,4.0357,4.0356,4.0354,4.0353,4.0404,4.0407,4.041,0,0,0,0,0,0,0,0,0,0,0,0,0,4.0257,4.0208,4.0326,4.0323,4.0323,4.0379,4.0379,4.038,4.0358,4.0356,4.0354,4.0352,4.0403,4.0407,4.0411,4.0473,0,0,4.0422,4.0424,0,0,0,0,0,0,0,0,4.0254,4.0262,4.0322,4.0323,4.0323,4.036,4.0355,4.0411,4.0358,4.0344,4.0353,4.0351,4.0391,4.0396,4.041,4.0475,4.0477,4.0423,4.0425,4.0427,4.0428,0,0,0,0,0,0,0,4.0251,4.0259,4.0347,4.0323,4.0324,4.0318,4.0323,4.0366,4.0378,4.0345,4.0344,4.0351,4.0391,4.0406,4.0411,4.0478,4.0423,4.0426,4.0428,4.043,4.0598,4.06,0,0,0,0,0,0,4.0247,4.0257,4.0345,4.0349,4.0284,4.0321,4.0327,4.035,4.0377,4.038,4.0352,4.0349,4.0401,4.0407,4.0413,4.0489,4.0427,4.043,4.0433,4.0596,4.0598,4.0601,0,0,0,0,0,0,4.0245,4.0256,4.0343,4.0302,4.0313,4.0326,4.0351,4.0352,4.0367,4.0382,4.0384,4.0366,4.0399,4.0407,4.0458,4.049,4.0432,4.0436,4.0593,4.0596,4.0599,4.064,0,0,0,0,0,0,4.0242,4.0255,4.0279,4.0303,4.0315,4.0389,4.0353,4.0354,4.0374,4.0371,4.0396,4.0398,4.0398,4.0453,4.0462,4.0494,4.0439,4.059,4.0595,4.0598,4.0636,4.0644,4.0651,0,0,0,0,0,4.0237,4.0287,4.028,4.0291,4.0346,4.0391,4.0397,4.0398,4.0377,4.0401,4.0411,4.0397,4.0484,4.0458,4.0469,4.0502,4.0588,4.0593,4.0598,4.0632,4.0642,4.0651,0,0,0,0,0,0,4.0266,4.029,4.0283,4.0342,4.0365,4.0387,4.0417,4.0408,4.0437,4.0432,4.0431,4.0437,4.049,4.0501,4.0471,4.0564,4.0533,4.054,4.0556,4.0565,4.0573,4.057,4.0442,0,0,0,0,0,4.0279,4.0314,4.0333,4.0384,4.0396,4.0405,4.0424,4.0423,4.0445,4.0454,4.0468,4.049,4.0523,4.0544,4.0575,4.0636,4.0642,4.0665,4.0672,4.0678,4.0685,4.072,4.0731,4.0616,4.0616,4.0616,0,0,4.0307,4.0325,4.0347,4.039,4.0407,4.0444,4.0413,4.0452,4.0479,4.046,4.051,4.0521,4.0545,4.0602,4.0628,4.0613,4.0718,4.0685,4.069,4.0693,4.0726,4.0737,4.0747,4.062,4.0619,4.0619,0,0,4.0377,4.0393,4.0438,4.0456,4.0483,4.0488,4.0499,4.0522,4.0529,4.0579,4.0566,4.0598,4.0653,4.0672,4.0689,4.0765,4.0754,4.0775,4.0816,4.085,4.0859,4.0867,4.0896,4.0906,4.0781,4.0782,4.0782,0,4.0408,4.0462,4.0462,4.0503,4.0523,4.0508,4.0554,4.057,4.0605,4.0619,4.0602,4.0673,4.0688,4.075,4.0769,4.0782,4.0795,4.0773,4.0858,4.0866,4.0873,4.0901,4.0912,4.0784,4.0784,4.0784,4.0783,0,4.05,4.0538,4.0571,4.0607,4.063,4.0673,4.0678,4.0702,4.0698,4.0705,4.0757,4.0774,4.0809,4.0823,4.0819,4.0885,4.0875,4.0858,4.0827,4.0887,4.0913,4.0923,4.0788,4.0787,4.0786,4.0785,0,0,4.059,4.0625,4.0638,4.0654,4.0683,4.0712,4.0754,4.0789,4.0809,4.0833,4.0869,4.0917,4.0902,4.092,4.0918,4.0948,4.101,4.0927,4.0927,4.0943,4.1085,4.1099,4.1112,4.1002,4.1004,4.1005,4.1083,0,4.0664,4.0739,4.074,4.0809,4.0845,4.0831,4.0868,4.0889,4.0897,4.0928,4.0935,4.097,4.0946,4.0958,4.0986,4.0996,4.1038,4.099,4.1036,4.1037,4.1032,4.1125,4.114,4.1213,4.1093,4.1095,4.1096,0,4.076,4.0789,4.0862,4.0886,4.0901,4.0934,4.0967,4.0996,4.102,4.1023,4.1045,4.1038,4.1081,4.1048,4.1107,4.1074,4.1093,4.11,4.1103,4.1109,4.1072,4.1135,4.1236,4.1248,4.1112,4.1111,4.111,0,4.0821,4.0878,4.0929,4.0943,4.0972,4.0996,4.1009,4.1031,4.1052,4.108,4.1094,4.1126,4.1144,4.1168,4.1171,4.1146,4.1231,4.1197,4.1236,4.1236,4.1256,4.1255,4.1364,4.1264,4.1264,4.1264,4.1264,0,4.0904,4.095,4.0957,4.0989,4.104,4.104,4.109,4.1101,4.112,4.1154,4.1143,4.1174,4.1174,4.1207,4.1208,4.1258,4.1266,4.127,4.127,4.1272,4.1272,4.1286,4.1282,4.1267,4.1266,4.1266,4.1265,0,4.0982,4.0988,4.1044,4.1067,4.1074,4.1111,4.113,4.116,4.1167,4.121,4.122,4.123,4.1267,4.1271,4.1314,4.1316,4.1376,4.137,4.1369,4.1369,4.1408,4.1405,4.1531,4.1548,4.1435,4.1436,4.1437,0,4.1036,4.1071,4.1098,4.112,4.1135,4.117,4.1192,4.1193,4.1216,4.1246,4.1273,4.1309,4.1339,4.1399,4.141,4.1443,4.1439,4.148,4.1443,4.1445,4.1442,4.1441,4.1445,4.1488,4.1489,4.149,4.1491,0,4.1131,4.1133,4.1165,4.12,4.1226,4.1253,4.1277,4.1296,4.13,4.1326,4.1365,4.1388,4.1432,4.1469,4.1501,4.1514,4.1504,4.1502,4.1513,4.1517,4.1516,4.1519,4.1391,4.15,4.1499,4.1498,4.1498,4.1498,4.12,4.1231,4.1256,4.1292,4.1311,4.1335,4.1365,4.1376,4.1408,4.1445,4.1443,4.1486,4.1509,4.1552,4.1567,4.16,4.1586,4.1602,4.1606,4.161,4.1616,4.1509,4.1606,4.1605,4.1605,4.1605,4.1605,0,4.1297,4.1312,4.1346,4.1382,4.141,4.1398,4.1425,4.145,4.1488,4.1511,4.154,4.1585,4.162,4.1634,4.1668,4.1693,4.1689,4.1702,4.1701,4.1705,4.1625,4.1613,4.1704,4.1704,4.1704,4.1704,4.1704,4.1704,4.1351,4.1404,4.1408,4.147,4.1484,4.1527,4.1544,4.1566,4.1584,4.1635,4.1664,4.1673,4.1692,4.1728,4.176,4.1763,4.1777,4.1793,4.1794,4.172,4.171,4.17,4.1689,4.1795,4.1796,4.1871,4.1872,4.1873]}]]